When you browse on this site, cookies collect data to enhance your experience and personalize the content and advertising you see.
Visit our Privacy Policy to learn more. By continuing to use the site, you agree to this use of cookies and data.
  • In Spain
  • List of Countries
  • For 7 days
  • Water Temperature
  • Satellite Maps
  • Weather Map
  • Weather Widgets
  • user-avatar
    Login

    Hourly Weather Artashat

    Today, 15 December, Saturday

    Time Temperature Precipitation Wind Pressure Humidity
    00:00 -6°C° 0 mm 2 mps 602 mmHg 67%
    01:00 -6°C° 0 mm 2 mps 602 mmHg 67%
    02:00 -6°C° 0 mm 2 mps 602 mmHg 67%
    03:00 -7°C° 0 mm 2 mps 602 mmHg 67%
    04:00 -7°C° 0 mm 2 mps 602 mmHg 67%
    05:00 -7°C° 0 mm 2 mps 602 mmHg 67%
    06:00 -7°C° 0 mm 2 mps 602 mmHg 67%
    07:00 -6°C° 0 mm 2 mps 603 mmHg 64%
    08:00 -5°C° 0 mm 2 mps 603 mmHg 62%
    09:00 -4°C° 0 mm 2 mps 604 mmHg 60%
    10:00 -3°C° 0 mm 2 mps 604 mmHg 58%
    11:00 -2°C° 0 mm 2 mps 604 mmHg 55%
    12:00 -1°C° 0 mm 2 mps 604 mmHg 53%
    13:00 -1°C° 0 mm 2 mps 604 mmHg 53%
    14:00 +2°C° 0 mm 1 mps 604 mmHg 53%
    15:00 +2°C° 0 mm 1 mps 603 mmHg 53%
    16:00 +1°C° 0 mm 1 mps 603 mmHg 57%
    17:00 -1°C° 0 mm 1 mps 603 mmHg 60%
    18:00 -2°C° 0 mm 1 mps 603 mmHg 64%
    19:00 -2°C° 0 mm 1 mps 603 mmHg 63%
    20:00 -2°C° 0 mm 1 mps 603 mmHg 63%
    21:00 -2°C° 0 mm 1 mps 603 mmHg 63%
    22:00 -2°C° 0 mm 1 mps 602 mmHg 63%
    23:00 -3°C° 0 mm 1 mps 602 mmHg 63%

    Tomorrow, 16 December, Sunday

    Time Temperature Precipitation Wind Pressure Humidity
    00:00 -3°C° 0 mm 1 mps 602 mmHg 62%
    01:00 -3°C° 0 mm 1 mps 602 mmHg 63%
    02:00 -3°C° 0 mm 1 mps 602 mmHg 63%
    03:00 -3°C° 0 mm 1 mps 602 mmHg 63%
    04:00 -3°C° 0 mm 1 mps 602 mmHg 63%
    05:00 -3°C° 0 mm 1 mps 602 mmHg 63%
    06:00 -3°C° 0 mm 1 mps 602 mmHg 64%
    07:00 -2°C° 0 mm 1 mps 602 mmHg 61%
    08:00 -1°C° 0 mm 1 mps 603 mmHg 58%
    09:00 0°C° 0 mm 1 mps 603 mmHg 56%
    10:00 +1°C° 0 mm 1 mps 603 mmHg 54%
    11:00 +2°C° 0 mm 1 mps 603 mmHg 52%
    12:00 +3°C° 0 mm 1 mps 603 mmHg 50%
    13:00 +3°C° 0 mm 1 mps 603 mmHg 50%
    14:00 +2°C° 0 mm 2 mps 603 mmHg 50%
    15:00 +2°C° 0 mm 2 mps 603 mmHg 50%
    16:00 +1°C° 0 mm 2 mps 602 mmHg 53%
    17:00 -1°C° 0 mm 2 mps 602 mmHg 56%
    18:00 -2°C° 0 mm 2 mps 602 mmHg 60%
    19:00 -3°C° 0 mm 2 mps 602 mmHg 59%
    20:00 -3°C° 0 mm 2 mps 602 mmHg 58%
    21:00 -3°C° 0 mm 2 mps 602 mmHg 58%
    22:00 -3°C° 0 mm 2 mps 602 mmHg 58%
    23:00 -3°C° 0 mm 2 mps 602 mmHg 57%

    Day after tomorrow, 17 December, Monday

    Time Temperature Precipitation Wind Pressure Humidity
    00:00 -4°C° 0 mm 2 mps 602 mmHg 57%
    01:00 -4°C° 0 mm 2 mps 602 mmHg 57%
    02:00 -4°C° 0 mm 2 mps 601 mmHg 57%
    03:00 -2°C° 0 mm 1 mps 601 mmHg 57%
    04:00 -2°C° 0 mm 1 mps 601 mmHg 56%
    05:00 -2°C° 0 mm 1 mps 601 mmHg 55%
    06:00 -1°C° 0 mm 1 mps 601 mmHg 55%
    07:00 -1°C° 0 mm 1 mps 601 mmHg 53%
    08:00 0°C° 0 mm 1 mps 601 mmHg 51%
    09:00 +1°C° 0 mm 1 mps 602 mmHg 50%
    10:00 +2°C° 0 mm 1 mps 601 mmHg 48%
    11:00 +3°C° 0 mm 1 mps 601 mmHg 47%
    12:00 +3°C° 0 mm 1 mps 601 mmHg 45%
    13:00 +3°C° 0 mm 1 mps 600 mmHg 48%
    14:00 +2°C° 0 mm 2 mps 600 mmHg 50%
    15:00 +2°C° 0 mm 2 mps 600 mmHg 52%
    16:00 +2°C° 0.1 mm 1 mps 599 mmHg 57%
    17:00 +1°C° 0.1 mm 1 mps 599 mmHg 62%
    18:00 0°C° 0.1 mm 1 mps 599 mmHg 67%
    19:00 0°C° 0.2 mm 1 mps 599 mmHg 70%
    20:00 0°C° 0.2 mm 1 mps 599 mmHg 72%
    21:00 0°C° 0.2 mm 1 mps 599 mmHg 75%
    22:00 0°C° 0.5 mm 1 mps 599 mmHg 77%
    23:00 -1°C° 0.5 mm 1 mps 599 mmHg 79%

    18 December, Tuesday

    Time Temperature Precipitation Wind Pressure Humidity
    00:00 -1°C° 0.5 mm 1 mps 598 mmHg 81%
    01:00 -1°C° 0.7 mm 1 mps 598 mmHg 82%
    02:00 -1°C° 0.7 mm 1 mps 598 mmHg 83%
    03:00 -1°C° 0.7 mm 1 mps 598 mmHg 83%
    04:00 -1°C° 0.4 mm 1 mps 598 mmHg 83%
    05:00 -4°C° 0.4 mm 2 mps 598 mmHg 83%
    06:00 -4°C° 0.4 mm 2 mps 597 mmHg 83%
    07:00 -3°C° 0.3 mm 2 mps 598 mmHg 82%
    08:00 -3°C° 0.3 mm 2 mps 598 mmHg 81%
    09:00 -3°C° 0.3 mm 2 mps 598 mmHg 80%
    10:00 -3°C° 0.2 mm 2 mps 599 mmHg 78%
    11:00 -2°C° 0.2 mm 2 mps 599 mmHg 77%
    12:00 -2°C° 0.2 mm 2 mps 599 mmHg 75%
    13:00 -2°C° 0.1 mm 2 mps 599 mmHg 74%
    14:00 0°C° 0.1 mm 1 mps 599 mmHg 73%
    15:00 0°C° 0.1 mm 1 mps 599 mmHg 73%
    16:00 0°C° 0 mm 1 mps 599 mmHg 74%
    17:00 -1°C° 0 mm 1 mps 599 mmHg 75%
    18:00 -2°C° 0 mm 1 mps 599 mmHg 76%
    19:00 -2°C° 0 mm 1 mps 600 mmHg 76%
    20:00 -3°C° 0 mm 1 mps 600 mmHg 75%
    21:00 -3°C° 0 mm 1 mps 600 mmHg 75%
    22:00 -3°C° 0 mm 1 mps 600 mmHg 75%
    23:00 -3°C° 0 mm 1 mps 600 mmHg 74%

    19 December, Wednesday

    Time Temperature Precipitation Wind Pressure Humidity
    00:00 -6°C° 0 mm 2 mps 600 mmHg 74%
    01:00 -6°C° 0 mm 2 mps 600 mmHg 74%
    02:00 -6°C° 0 mm 2 mps 601 mmHg 74%
    03:00 -6°C° 0 mm 2 mps 601 mmHg 75%
    04:00 -4°C° 0 mm 1 mps 601 mmHg 75%
    05:00 -4°C° 0 mm 1 mps 601 mmHg 75%
    06:00 -4°C° 0 mm 1 mps 601 mmHg 75%
    07:00 -3°C° 0 mm 1 mps 602 mmHg 74%
    08:00 -3°C° 0 mm 1 mps 602 mmHg 73%
    09:00 -2°C° 0 mm 1 mps 603 mmHg 71%
    10:00 -1°C° 0 mm 1 mps 603 mmHg 70%
    11:00 -2°C° 0 mm 2 mps 603 mmHg 68%
    12:00 -2°C° 0 mm 2 mps 603 mmHg 67%
    13:00 -1°C° 0 mm 2 mps 602 mmHg 67%
    14:00 -1°C° 0 mm 2 mps 602 mmHg 67%
    15:00 -1°C° 0 mm 2 mps 602 mmHg 67%
    16:00 -2°C° 0 mm 2 mps 602 mmHg 70%
    17:00 -4°C° 0 mm 2 mps 602 mmHg 72%
    18:00 -5°C° 0 mm 2 mps 602 mmHg 75%
    19:00 -5°C° 0 mm 2 mps 602 mmHg 73%
    20:00 -5°C° 0 mm 2 mps 602 mmHg 72%
    21:00 -5°C° 0 mm 2 mps 602 mmHg 71%
    22:00 -6°C° 0 mm 2 mps 602 mmHg 70%
    23:00 -4°C° 0 mm 1 mps 602 mmHg 70%

    20 December, Thursday

    Time Temperature Precipitation Wind Pressure Humidity
    00:00 -4°C° 0 mm 1 mps 602 mmHg 69%
    01:00 -4°C° 0 mm 1 mps 602 mmHg 68%
    02:00 -4°C° 0 mm 1 mps 602 mmHg 68%
    03:00 -4°C° 0 mm 1 mps 602 mmHg 68%
    04:00 -4°C° 0 mm 1 mps 602 mmHg 68%
    05:00 -3°C° 0 mm 1 mps 602 mmHg 69%
    06:00 -3°C° 0 mm 1 mps 602 mmHg 69%
    07:00 -3°C° 0 mm 1 mps 602 mmHg 68%
    08:00 -2°C° 0 mm 1 mps 602 mmHg 67%
    09:00 -1°C° 0 mm 1 mps 602 mmHg 65%
    10:00 0°C° 0 mm 1 mps 602 mmHg 64%
    11:00 0°C° 0 mm 1 mps 602 mmHg 63%
    12:00 +1°C° 0 mm 1 mps 602 mmHg 62%
    13:00 +1°C° 0 mm 1 mps 602 mmHg 63%
    14:00 +1°C° 0 mm 1 mps 602 mmHg 65%
    15:00 +1°C° 0 mm 1 mps 601 mmHg 67%
    16:00 0°C° 0 mm 1 mps 601 mmHg 69%
    17:00 0°C° 0 mm 1 mps 601 mmHg 70%
    18:00 -1°C° 0 mm 1 mps 601 mmHg 72%
    19:00 -1°C° 0 mm 1 mps 601 mmHg 73%
    20:00 -2°C° 0 mm 1 mps 601 mmHg 74%
    21:00 -3°C° 0 mm 0 mps 601 mmHg 75%
    22:00 -3°C° 0 mm 0 mps 600 mmHg 76%
    23:00 -3°C° 0 mm 0 mps 600 mmHg 77%
    Show more